Location: Plainartige
(45.6866°N, 1.7993°E)
Time: 11:22:21
(UTC+00:00)

Gurwin Techsat 1B - Pass Details

Date: 09 July 2022
Orbit: 812 x 813 km, 98.8° (Epoch: 09 August)

Event Time Altitude Azimuth Distance (km) Brightness Sun altitude
Rises 02:16:23 0° 17° (NNE) 3,346 13.4 -15.0°
Reaches altitude 10° 02:18:47 10° 21° (NNE) 2,410 12.4 -14.8°
Maximum altitude 02:24:04 62° 102° (ESE) 911 9.0 -14.3°
Enters shadow 02:28:36 14° 181° (S) 2,124 10.3 -13.8°
